This is the latest recevied weather packets stored in our database for station/object K4PAD. If no packets are shown the sender has not sent any weather packets the latest 10 day(s).
| Time | Temp. | Humidity | Pressure | Rain* | Wind** | Luminosity | Snow |
|---|---|---|---|---|---|---|---|
| 1777412673 | 26.67° C | 62% | 1019.9 hPa | 0 mm | - | 344 W/m² | - |
| 1777412371 | 27.22° C | 61% | 1020.3 hPa | 0 mm | - | 400 W/m² | - |
| 1777412067 | 27.22° C | 60% | 1020.1 hPa | 0 mm | - | 422 W/m² | - |
| 1777411761 | 27.22° C | 60% | 1019.8 hPa | 0 mm | - | 471 W/m² | - |
| 1777411456 | 27.78° C | 59% | 1020 hPa | 0 mm | - | 479 W/m² | - |
| 1777411150 | 27.22° C | 59% | 1020.1 hPa | 0 mm | - | 546 W/m² | - |
| 1777410850 | 27.22° C | 59% | 1020.2 hPa | 0 mm | - | 471 W/m² | - |
| 1777410549 | 27.22° C | 59% | 1020.2 hPa | 0 mm | - | 435 W/m² | - |
| 1777410249 | 27.78° C | 58% | 1020.3 hPa | 0 mm | - | 603 W/m² | - |
| 1777409944 | 27.78° C | 58% | 1020.5 hPa | 0 mm | - | 600 W/m² | - |
| 1777409639 | 27.78° C | 57% | 1020.4 hPa | 0 mm | - | 665 W/m² | - |
| 1777409335 | 28.33° C | 56% | 1020.7 hPa | 0 mm | - | 689 W/m² | - |
| 1777409031 | 27.78° C | 57% | 1020.8 hPa | 0 mm | - | 689 W/m² | - |
| 1777408728 | 27.78° C | 57% | 1020.9 hPa | 0 mm | - | 715 W/m² | - |
| 1777408424 | 27.78° C | 59% | 1020.7 hPa | 0 mm | - | 736 W/m² | - |
| 1777408118 | 27.78° C | 59% | 1020.8 hPa | 0 mm | - | 153 W/m² | - |
| 1777407814 | 27.78° C | 59% | 1020.9 hPa | 0 mm | - | 323 W/m² | - |
| 1777407510 | 27.78° C | 59% | 1020.9 hPa | 0 mm | - | 843 W/m² | - |
| 1777407205 | 27.78° C | 59% | 1021.1 hPa | 0 mm | - | 838 W/m² | - |
| 1777406900 | 27.78° C | 58% | 1021 hPa | 0 mm | - | 388 W/m² | - |
| 1777406595 | 27.78° C | 58% | 1021 hPa | 0 mm | - | 866 W/m² | - |
| 1777406292 | 28.33° C | 56% | 1020.9 hPa | 0 mm | - | 942 W/m² | - |
| 1777405990 | 28.89° C | 56% | 1021.1 hPa | 0 mm | - | 317 W/m² | - |
| 1777405687 | 27.78° C | 55% | 1021 hPa | 0 mm | - | 910 W/m² | - |
| 1777405384 | 27.78° C | 57% | 1021.3 hPa | 0 mm | - | 911 W/m² | - |
* Rain latest hour (hover to see other rain measurements)
** Current wind speed in m/s (hover to see current wind gust speed)